Simultaneous Nadir Overpasses (SNOs) Predictions

Prediction of SNOs between METOP-B and NOAA-19 Satellite Orbit:

Table of predicted SNOs for the next 14.0 days since TLE Epoch: 12/10/2016
Index Date (METOP-B) Time (METOP-B) Lat,Lon (METOP-B) SZA (METOP-B ) Date (NOAA-19) Time (NOAA-19) Lat,Lon (NOAA-19) SZA (NOAA-19 ) Distance(km) Time Diff (sec)
1 12/14/2016 02:41:43 -76.81, -36.96 80.00 12/14/2016 02:40:31 -76.81, -38.37 80.03 35.85 72
2 12/14/2016 03:32:27 76.62, 129.63 99.80 12/14/2016 03:31:28 76.64, 129.55 99.82 3.32 59
3 12/14/2016 04:23:09 -76.62, -63.06 80.20 12/14/2016 04:22:28 -76.60, -63.03 80.22 1.77 41
4 12/14/2016 05:13:49 76.60, 104.22 99.79 12/14/2016 05:13:29 76.61, 104.19 99.79 1.17 20
5 12/14/2016 06:04:31 -76.60, -88.46 80.22 12/14/2016 06:04:30 -76.61, -88.56 80.21 2.86 1
6 12/14/2016 06:55:11 76.58, 78.82 99.77 12/14/2016 06:55:30 76.57, 78.83 99.77 1.13 19
7 12/14/2016 07:45:53 -76.58,-113.87 80.23 12/14/2016 07:46:31 -76.57,-113.93 80.24 1.65 38
8 12/14/2016 08:36:33 76.57, 53.41 99.76 12/14/2016 08:37:31 76.54, 53.46 99.74 3.26 58
9 12/14/2016 09:27:17 -76.47,-139.61 80.34 12/14/2016 09:28:31 -76.50,-139.12 80.31 13.03 74




NCC Satellite Simultaneous Nadir Overpasses (SNOs) Prediction Service
